Weather History for Wheeler AAF, HI

Change the Weather History Date:

Tuesday, April 22, 2014

  Actual Average Record
Temperature  
Mean Temperature 73 °F -  
Max Temperature 77 °F 76 °F 82 °F (2004)
Min Temperature 69 °F 62 °F 59 °F (2009)
Cooling Degree Days 8    
Growing Degree Days 23 (Base 50)    
Moisture  
Dew Point 63 °F    
Average Humidity 72    
Maximum Humidity 83    
Minimum Humidity 60    
Precipitation  
Precipitation 0.00 in - - ()
Sea Level Pressure  
Sea Level Pressure 30.10 in    
Wind  
Wind Speed 7 mph (East)    
Max Wind Speed 17 mph    
Max Gust Speed 26 mph    
Visibility 10 miles    
Events      
Averages and records for this station are not official NWS values.
T = Trace of Precipitation, MM = Missing Value Source: NWS Daily Summary

Daily Weather History Graph

Daily Weather History Graph

Search for Another Location

Airport:

Trip Planner

Search our weather history database for the weather conditions in past years. The results will help you decide how hot, cold, wet, or windy it might be!

Date:

Astronomy

Apr. 22, 2014 Rise Set
Actual Time 6:07 AM HST 6:54 PM HST
Civil Twilight 5:44 AM HST 7:17 PM HST
Nautical Twilight 5:17 AM HST 7:44 PM HST
Astronomical Twilight 4:49 AM HST 8:11 PM HST
Moon 1:14 AM HST (4/22) 12:56 PM HST (4/22)
Length of Visible Light 13h 32m
Length of Day
12h 47m
Last Quarter, 43% of the Moon is Illuminated
Apr 22
Last Quarter
Apr 28
New
May 6
First Quarter
May 14
Full
May 21
Last Quarter

Hourly Weather History & Observations

Time (HST) Temp. Dew Point Humidity Pressure Visibility Wind Dir Wind Speed Gust Speed Precip Events Conditions
12:53 AM 71.6 °F 62.6 °F 73% 30.13 in 10.0 mi NE 5.8 mph - N/A   Mostly Cloudy
12:57 AM 71.6 °F 62.6 °F 73% 30.13 in 10.0 mi Variable 3.5 mph - N/A   Light Drizzle
12:58 AM 71.6 °F 62.6 °F 73% 30.11 in 10.0 mi NE 4.6 mph - N/A   Light Drizzle
1:03 AM 71.6 °F 64.4 °F 78% 30.13 in 10.0 mi ENE 4.6 mph - N/A   Light Drizzle
1:07 AM 71.6 °F 64.4 °F 78% 30.13 in 10.0 mi South 2.3 mph - N/A   Mostly Cloudy
1:17 AM 69.8 °F 64.4 °F 83% 30.12 in 10.0 mi Variable 1.2 mph - N/A   Overcast
1:42 AM 69.8 °F 64.4 °F 83% 30.12 in 10.0 mi Variable 4.6 mph - N/A   Mostly Cloudy
1:47 AM 69.8 °F 64.4 °F 83% 30.12 in 10.0 mi Variable 5.8 mph - N/A   Mostly Cloudy
1:52 AM 69.8 °F 64.4 °F 83% 30.12 in 10.0 mi Variable 5.8 mph - N/A   Mostly Cloudy
1:58 AM 70.5 °F 63.9 °F 79% 30.09 in 10.0 mi Variable 3.5 mph - 0.00 in   Mostly Cloudy
2:28 AM 69.8 °F 64.4 °F 83% 30.11 in 10.0 mi ENE 5.8 mph - N/A   Mostly Cloudy
2:33 AM 69.8 °F 64.4 °F 83% 30.10 in 10.0 mi Variable 2.3 mph - N/A   Mostly Cloudy
2:58 AM 69.8 °F 64.4 °F 83% 30.08 in 10.0 mi East 5.8 mph - N/A   Mostly Cloudy
3:13 AM 69.8 °F 64.4 °F 83% 30.10 in 10.0 mi East 4.6 mph - N/A   Mostly Cloudy
3:18 AM 69.8 °F 64.4 °F 83% 30.10 in 10.0 mi ESE 4.6 mph - N/A   Mostly Cloudy
3:58 AM 70.7 °F 63.3 °F 77% 30.07 in 10.0 mi ESE 5.8 mph - N/A   Scattered Clouds
4:08 AM 69.8 °F 64.4 °F 83% 30.09 in 10.0 mi Variable 5.8 mph - N/A   Mostly Cloudy
4:58 AM 71.1 °F 63.7 °F 77% 30.07 in 10.0 mi East 9.2 mph - N/A   Overcast
5:38 AM 71.6 °F 62.6 °F 73% 30.10 in 10.0 mi ENE 3.5 mph - N/A   Overcast
5:43 AM 71.6 °F 62.6 °F 73% 30.10 in 10.0 mi Variable 1.2 mph - N/A   Overcast
5:58 AM 70.7 °F 62.2 °F 75% 30.08 in 10.0 mi North 6.9 mph - N/A   Overcast
6:58 AM 71.4 °F 62.4 °F 73% 30.10 in 10.0 mi Variable 5.8 mph - N/A   Overcast
7:58 AM 72.3 °F 63.1 °F 73% 30.11 in 10.0 mi Variable 4.6 mph - N/A   Overcast
8:02 AM 71.6 °F 62.6 °F 73% 30.13 in 10.0 mi NE 13.8 mph 19.6 mph N/A   Overcast
8:27 AM 73.4 °F 60.8 °F 65% 30.14 in 10.0 mi East 8.1 mph 17.3 mph N/A   Overcast
8:58 AM 73.6 °F 62.8 °F 69% 30.12 in 10.0 mi East 9.2 mph 18.4 mph N/A   Overcast
9:03 AM 75.2 °F 62.6 °F 65% 30.14 in 10.0 mi East 16.1 mph 24.2 mph N/A   Mostly Cloudy
9:13 AM 75.2 °F 62.6 °F 65% 30.14 in 10.0 mi ENE 15.0 mph 21.9 mph N/A   Mostly Cloudy
9:53 AM 75.2 °F 64.4 °F 69% 30.14 in 10.0 mi ESE 11.5 mph - N/A   Overcast
9:58 AM 74.8 °F 63.7 °F 68% 30.12 in 10.0 mi East 12.7 mph 17.3 mph N/A   Overcast
10:53 AM 75.2 °F 62.6 °F 65% 30.14 in 10.0 mi ENE 12.7 mph 20.7 mph N/A   Overcast
10:58 AM 75.6 °F 62.4 °F 64% 30.12 in 10.0 mi East 6.9 mph 20.7 mph N/A   Overcast
11:02 AM 75.2 °F 62.6 °F 65% 30.14 in 10.0 mi NE 15.0 mph 20.7 mph N/A   Mostly Cloudy
11:04 AM 75.2 °F 62.6 °F 65% 30.14 in 10.0 mi East 12.7 mph 17.3 mph N/A   Mostly Cloudy
11:27 AM 77.0 °F 62.6 °F 61% 30.13 in 10.0 mi ENE 17.3 mph - N/A   Mostly Cloudy
11:58 AM 76.6 °F 63.5 °F 64% 30.10 in 10.0 mi ENE 9.2 mph - N/A   Mostly Cloudy
12:46 PM 77.0 °F 62.6 °F 61% 30.11 in 10.0 mi ENE 13.8 mph 21.9 mph N/A   Mostly Cloudy
12:58 PM 77.5 °F 63.5 °F 62% 30.07 in 10.0 mi East 8.1 mph - N/A   Mostly Cloudy
1:06 PM 77.0 °F 64.4 °F 65% 30.10 in 10.0 mi East 13.8 mph - N/A   Overcast
1:15 PM 77.0 °F 62.6 °F 61% 30.10 in 10.0 mi ENE 16.1 mph 21.9 mph N/A   Overcast
1:49 PM 77.0 °F 62.6 °F 61% 30.08 in 10.0 mi NE 15.0 mph 24.2 mph N/A   Overcast
1:58 PM 77.9 °F 62.8 °F 60% 30.04 in 10.0 mi East 17.3 mph 26.5 mph N/A   Mostly Cloudy
2:58 PM 75.4 °F 62.8 °F 65% 30.04 in 10.0 mi East 6.9 mph - N/A   Mostly Cloudy
3:58 PM 75.4 °F 63.0 °F 65% 30.03 in 10.0 mi Variable 3.5 mph - N/A   Mostly Cloudy
4:58 PM 75.0 °F 63.0 °F 66% 30.01 in 10.0 mi Variable 5.8 mph 17.3 mph N/A   Scattered Clouds
5:08 PM 73.4 °F 62.6 °F 69% 30.05 in 10.0 mi East 4.6 mph - N/A   Mostly Cloudy
5:58 PM 73.8 °F 62.6 °F 68% 30.03 in 10.0 mi Variable 5.8 mph 18.4 mph N/A   Overcast
6:58 PM 72.3 °F 62.1 °F 70% 30.04 in 10.0 mi Variable 5.8 mph - N/A   Overcast
7:28 PM 71.6 °F 62.6 °F 73% 30.07 in 10.0 mi NE 10.4 mph - N/A   Mostly Cloudy
7:38 PM 71.6 °F 62.6 °F 73% 30.07 in 10.0 mi Variable 6.9 mph - N/A   Mostly Cloudy
7:43 PM 71.6 °F 62.6 °F 73% 30.07 in 10.0 mi East 8.1 mph - N/A   Mostly Cloudy
7:53 PM 71.6 °F 62.6 °F 73% 30.08 in 10.0 mi Variable 5.8 mph - N/A   Mostly Cloudy
7:58 PM 72.1 °F 62.4 °F 71% 30.06 in 10.0 mi Variable 5.8 mph - N/A   Overcast
8:43 PM 71.6 °F 62.6 °F 73% 30.10 in 10.0 mi Variable 1.2 mph - N/A   Scattered Clouds
8:58 PM 71.1 °F 61.5 °F 72% 30.08 in 10.0 mi Variable 2.3 mph - N/A   Mostly Cloudy
9:58 PM 71.8 °F 61.7 °F 70% 30.09 in 10.0 mi SE 4.6 mph - N/A   Mostly Cloudy
10:03 PM 71.6 °F 60.8 °F 69% 30.12 in 10.0 mi SW 4.6 mph - N/A   Mostly Cloudy
10:58 PM 71.1 °F 61.0 °F 70% 30.09 in 10.0 mi Variable 4.6 mph - N/A   Overcast
11:58 PM 71.6 °F 61.3 °F 70% 30.09 in 10.0 mi East 5.8 mph - N/A   Overcast